EW7714 Weather Reports


time (UTC)temp
C
wind
direction
speed
KPH
gust
KPH
rain 1hr
cm
rain 24hr
cm
rain mn
cm
humidity
%
barometer
mb
20260506061604 20 207 3.2 6.4 0.00 0.00 0.00 94 1012.4
20260506061000 20 221 1.6 6.4 0.00 0.00 0.00 94 1012.6
20260506051006 20 190 1.6 3.2 0.00 0.00 0.00 93 1013.1
20260506050103 20 190 0.0 4.8 0.00 0.00 0.00 93 1013.0
20260506045005 20 192 0.0 4.8 0.00 0.00 0.00 92 1013.2
20260506044613 20 190 0.0 3.2 0.00 0.00 0.00 92 1013.1
20260506044005 20 190 0.0 4.8 0.00 0.00 0.00 92 1013.2
20260506043059 20 190 0.0 8.0 0.00 0.00 0.00 92 1013.0
20260506043004 20 190 1.6 8.0 0.00 0.00 0.00 92 1013.2
20260506042005 20 224 0.0 4.8 0.00 0.00 0.00 92 1013.3
20260506041609 20 224 0.0 4.8 0.00 0.00 0.00 92 1013.1
20260506040001 20 141 0.0 4.8 0.00 0.00 0.00 91 1013.3
20260506034608 20 139 0.0 4.8 0.00 0.00 0.00 91 1013.3
20260506034004 20 139 0.0 4.8 0.00 0.00 0.00 91 1013.5
20260506033059 20 138 0.0 3.2 0.00 0.00 0.00 90 1013.5
20260506033006 20 115 0.0 3.2 0.00 0.00 0.00 90 1013.7
20260506032006 20 115 0.0 3.2 0.00 0.00 0.00 89 1013.6
20260506031604 20 115 0.0 3.2 0.00 0.00 0.00 89 1013.6
20260506031005 20 115 0.0 1.6 0.00 0.00 0.00 89 1013.8
20260506030100 20 115 0.0 1.6 0.00 0.00 0.00 88 1013.6
20260506030005 20 115 0.0 1.6 0.00 0.00 0.00 89 1013.7
20260506025005 21 115 0.0 4.8 0.00 0.00 0.00 88 1013.6
20260506024613 21 115 0.0 4.8 0.00 0.00 0.00 88 1013.5
20260506024004 21 114 0.0 3.2 0.00 0.00 0.00 87 1013.6
20260506023100 21 114 0.0 3.2 0.00 0.00 0.00 87 1013.5
20260506023005 21 113 1.6 3.2 0.00 0.00 0.00 87 1013.6
20260506022005 21 105 1.6 6.4 0.00 0.00 0.00 86 1013.4
20260506021600 21 180 0.0 4.8 0.00 0.00 0.00 86 1013.1
20260506021005 21 171 1.6 6.4 0.00 0.00 0.00 86 1013.1
20260506020123 21 194 0.0 3.2 0.00 0.00 0.00 86 1013.0
20260506020005 21 194 1.6 6.4 0.00 0.00 0.00 86 1013.1
20260506015005 21 195 0.0 4.8 0.00 0.00 0.00 85 1013.2
20260506014600 21 195 0.0 3.2 0.00 0.00 0.00 85 1013.0
20260506014005 21 196 1.6 6.4 0.00 0.00 0.00 85 1013.3
20260506013059 21 198 0.0 4.8 0.00 0.00 0.00 84 1013.1
20260506013005 21 198 1.6 4.8 0.00 0.00 0.00 84 1013.3
20260506012005 22 198 1.6 4.8 0.00 0.00 0.00 84 1013.4
20260506011601 22 198 0.0 4.8 0.00 0.00 0.00 84 1013.2
20260506011004 22 202 1.6 4.8 0.00 0.00 0.00 83 1013.3
20260506010103 22 186 0.0 6.4 0.00 0.00 0.00 83 1013.0
20260506010006 22 186 1.6 6.4 0.00 0.00 0.00 83 1013.2
20260506010002 22 186 0.0 6.4 0.00 0.00 0.00 83 1013.0
20260506005005 22 187 1.6 6.4 0.00 0.00 0.00 82 1013.0
20260506004600 22 218 0.0 4.8 0.00 0.00 0.00 82 1012.9
20260506004004 22 216 1.6 6.4 0.00 0.00 0.00 82 1013.0
20260506003100 22 229 0.0 4.8 0.00 0.00 0.00 81 1012.9
20260506003005 22 229 1.6 4.8 0.00 0.00 0.00 81 1013.0
20260506002004 22 229 3.2 6.4 0.00 0.00 0.00 80 1013.0
20260506001607 22 228 1.6 9.7 0.00 0.00 0.00 80 1012.8
20260506001004 22 162 3.2 9.7 0.00 0.00 0.00 80 1012.9
20260506000124 23 170 4.8 12.9 0.00 0.00 0.00 79 1012.8
20260506000005 23 175 3.2 12.9 0.00 0.00 0.00 79 1012.8
20260505235005 23 146 3.2 11.3 0.00 0.00 0.00 78 1012.7
20260505234616 23 192 1.6 12.9 0.00 0.00 0.00 78 1012.7
20260505234005 23 256 3.2 8.0 0.00 0.00 0.00 77 1013.0
20260505233059 23 217 1.6 9.7 0.00 0.00 0.00 76 1012.8
20260505233005 23 217 4.8 9.7 0.00 0.00 0.00 76 1012.9
20260505232004 23 195 4.8 16.1 0.00 0.00 0.00 75 1012.8
20260505231601 23 286 3.2 14.5 0.00 0.00 0.00 75 1012.7
20260505231005 23 162 3.2 9.7 0.00 0.00 0.00 74 1012.9
20260505230059 23 229 4.8 11.3 0.00 0.00 0.00 73 1012.5
20260505230018 23 219 3.2 12.9 0.00 0.00 0.00 73 1012.5
20260505230004 23 219 4.8 12.9 0.00 0.00 0.00 72 1012.7
20260505224559 24 234 3.2 8.0 0.00 0.00 0.00 71 1012.7
20260505224004 25 238 4.8 14.5 0.00 0.00 0.00 71 1012.7
20260505223105 25 142 3.2 19.3 0.00 0.00 0.00 69 1012.6
20260505223002 25 171 6.4 19.3 0.00 0.00 0.00 69 1012.7
20260505222003 25 185 4.8 14.5 0.00 0.00 0.00 68 1012.6
20260505221602 25 176 4.8 12.9 0.00 0.00 0.00 69 1012.5
20260505221005 25 172 4.8 19.3 0.00 0.00 0.00 68 1012.8
20260505220108 25 177 3.2 14.5 0.00 0.00 0.00 68 1012.5
20260505220007 25 250 4.8 14.5 0.00 0.00 0.00 68 1012.6
20260505220002 25 250 3.2 14.5 0.00 0.00 0.00 68 1012.5
20260505215005 25 176 3.2 11.3 0.00 0.00 0.00 68 1012.5
20260505214612 25 179 3.2 12.9 0.00 0.00 0.00 66 1012.3
20260505214005 26 242 4.8 16.1 0.00 0.00 0.00 67 1012.5
20260505213100 26 155 4.8 17.7 0.00 0.00 0.00 65 1012.4
20260505213005 26 213 4.8 17.7 0.00 0.00 0.00 65 1012.5
20260505212004 26 63 4.8 17.7 0.00 0.00 0.00 65 1012.4
20260505211636 26 247 4.8 17.7 0.00 0.00 0.00 65 1012.3
20260505211004 26 192 6.4 16.1 0.00 0.00 0.00 65 1012.4
20260505210100 26 216 6.4 16.1 0.00 0.00 0.00 64 1012.3
20260505210005 26 170 4.8 16.1 0.00 0.00 0.00 65 1012.4
20260505205004 26 88 6.4 16.1 0.00 0.00 0.00 64 1012.5
20260505204613 26 125 6.4 19.3 0.00 0.00 0.00 63 1012.4
20260505204005 26 124 4.8 19.3 0.00 0.00 0.00 64 1012.7
20260505203100 27 136 1.6 11.3 0.00 0.00 0.00 64 1012.6
20260505201600 27 169 4.8 16.1 0.00 0.00 0.00 62 1012.8
20260505201005 27 199 4.8 17.7 0.00 0.00 0.00 62 1013.1
20260505200059 26 245 3.2 11.3 0.00 0.00 0.00 64 1013.1
20260505200006 26 243 4.8 14.5 0.00 0.00 0.00 65 1013.3
20260505200002 26 243 4.8 14.5 0.00 0.00 0.00 65 1013.1
20260505195006 26 231 4.8 12.9 0.00 0.00 0.00 64 1013.5
20260505194600 26 221 3.2 12.9 0.00 0.00 0.00 65 1013.4
20260505194005 26 244 6.4 17.7 0.00 0.00 0.00 63 1013.5
20260505193100 26 202 4.8 16.1 0.00 0.00 0.00 64 1013.4
20260505193005 26 206 6.4 16.1 0.00 0.00 0.00 64 1013.6
20260505191605 26 97 3.2 17.7 0.00 0.00 0.00 64 1013.5
20260505191003 26 218 3.2 11.3 0.00 0.00 0.00 64 1013.7
20260505190111 26 120 3.2 16.1 0.00 0.00 0.00 61 1013.5
20260505190004 26 119 6.4 16.1 0.00 0.00 0.00 61 1013.6
20260505185004 26 150 6.4 14.5 0.00 0.00 0.00 62 1013.8
20260505184558 26 167 3.2 17.7 0.00 0.00 0.00 63 1013.6
20260505183059 26 244 3.2 11.3 0.00 0.00 0.00 67 1013.7
20260505183005 26 251 4.8 16.1 0.00 0.00 0.00 65 1013.9
20260505182004 26 212 4.8 14.5 0.00 0.00 0.00 65 1013.9
20260505181641 26 290 3.2 16.1 0.00 0.00 0.00 64 1013.8
20260505181004 26 217 4.8 16.1 0.00 0.00 0.00 63 1014.1
20260505180106 26 216 4.8 16.1 0.00 0.00 0.00 67 1014.0
20260505180004 26 182 4.8 16.1 0.00 0.00 0.00 65 1014.1
20260505175004 25 206 4.8 19.3 0.00 0.00 0.00 65 1014.1
20260505174558 26 128 4.8 11.3 0.00 0.00 0.00 66 1013.8
20260505174004 25 250 4.8 16.1 0.00 0.00 0.00 68 1014.0
20260505173058 25 271 4.8 19.3 0.00 0.00 0.00 66 1014.1
20260505172005 25 230 6.4 12.9 0.00 0.00 0.00 69 1014.2
20260505171604 25 132 6.4 17.7 0.00 0.00 0.00 68 1014.2
20260505171004 25 195 6.4 17.7 0.00 0.00 0.00 67 1014.3
20260505170059 25 131 3.2 17.7 0.00 0.00 0.00 67 1014.1
20260505170007 25 128 4.8 17.7 0.00 0.00 0.00 67 1014.3
20260505170002 25 128 4.8 17.7 0.00 0.00 0.00 67 1014.2
20260505165005 25 196 4.8 14.5 0.00 0.00 0.00 68 1014.2
20260505164558 25 182 1.6 16.1 0.00 0.00 0.00 68 1014.2
20260505164004 25 201 4.8 14.5 0.00 0.00 0.00 67 1014.2
20260505163058 25 240 3.2 14.5 0.00 0.00 0.00 69 1014.2
20260505162001 25 222 4.8 22.5 0.00 0.00 0.00 69 1014.2
20260505161558 25 288 3.2 22.5 0.00 0.00 0.00 68 1014.1
20260505153100 23 211 4.8 12.9 0.00 0.00 0.00 70 1014.1
20260505153006 23 167 6.4 12.9 0.00 0.00 0.00 69 1014.2
20260505152005 23 180 4.8 14.5 0.00 0.00 0.00 70 1014.2
20260505151605 23 213 3.2 14.5 0.00 0.00 0.00 72 1014.1
20260505151005 23 238 6.4 14.5 0.00 0.00 0.00 73 1014.1
20260505140108 21 219 0.0 4.8 0.00 0.00 0.00 82 1014.2
20260505124558 14 164 0.0 0.0 0.00 0.00 0.00 98 1013.9
20260505124000 13 164 0.0 0.0 0.00 0.00 0.00 98 1014.0
20260505123101 13 164 0.0 0.0 0.00 0.00 0.00 97 1013.9
20260505123000 13 164 0.0 0.0 0.00 0.00 0.00 97 1014.0
20260505122000 12 164 0.0 0.0 0.00 0.00 0.00 97 1013.8
20260505121558 12 164 0.0 0.0 0.00 0.00 0.00 97 1013.7
20260505121000 12 164 0.0 0.0 0.00 0.00 0.00 96 1013.8
20260505120121 11 164 0.0 0.0 0.00 0.00 0.00 96 1013.7
20260505120010 11 164 0.0 0.0 0.00 0.00 0.00 96 1013.7
20260505115000 11 164 0.0 0.0 0.00 0.00 0.00 96 1013.6
20260505114558 11 164 0.0 0.0 0.00 0.00 0.00 96 1013.5
20260505114003 11 164 0.0 0.0 0.00 0.00 0.00 95 1013.5
20260505113057 11 164 0.0 0.0 0.00 0.00 0.00 96 1013.4
20260505112959 11 164 0.0 0.0 0.00 0.00 0.00 96 1013.5
20260505112000 11 164 0.0 0.0 0.00 0.00 0.00 95 1013.3
20260505111557 11 164 0.0 0.0 0.00 0.00 0.00 95 1013.4
20260505110959 11 165 0.0 0.0 0.00 0.00 0.00 95 1013.4
20260505110112 11 165 0.0 0.0 0.00 0.00 0.00 95 1013.1
20260505102002 11 165 0.0 0.0 0.00 0.00 0.00 95 1013.1
20260505101604 11 165 0.0 0.0 0.00 0.00 0.00 95 1013.0
20260505101004 11 165 0.0 0.0 0.00 0.00 0.00 95 1013.1
20260505100100 11 165 0.0 0.0 0.00 0.00 0.00 94 1013.0
20260505100000 11 165 0.0 0.0 0.00 0.00 0.00 94 1013.1
20260505095000 11 165 0.0 0.0 0.00 0.00 0.00 95 1013.2
20260505094558 11 165 0.0 0.0 0.00 0.00 0.00 95 1013.1
20260505094002 11 165 0.0 0.0 0.00 0.00 0.00 95 1013.1
20260505093058 11 165 0.0 0.0 0.00 0.00 0.00 94 1012.9
20260505093005 11 165 0.0 0.0 0.00 0.00 0.00 94 1013.0
20260505092004 11 165 0.0 0.0 0.00 0.00 0.00 95 1013.0
20260505091600 11 165 0.0 0.0 0.00 0.00 0.00 95 1013.0
20260505091005 11 165 0.0 0.0 0.00 0.00 0.00 95 1013.1
20260505090059 11 165 0.0 0.0 0.00 0.00 0.00 95 1012.9
20260505085959 11 165 0.0 0.0 0.00 0.00 0.00 95 1013.1
20260505085000 11 165 0.0 0.0 0.00 0.00 0.00 94 1013.1
20260505084604 11 165 0.0 0.0 0.00 0.00 0.00 95 1013.0
20260505084000 11 165 0.0 0.0 0.00 0.00 0.00 94 1013.2
20260505083110 11 165 0.0 0.0 0.00 0.00 0.00 94 1013.0
20260505083000 11 165 0.0 0.0 0.00 0.00 0.00 94 1013.1
20260505082000 11 165 0.0 0.0 0.00 0.00 0.00 94 1013.1
20260505081600 11 165 0.0 0.0 0.00 0.00 0.00 94 1012.9
20260505081003 11 165 0.0 0.0 0.00 0.00 0.00 94 1013.0
20260505080105 11 165 0.0 0.0 0.00 0.00 0.00 94 1013.0
20260505075005 11 165 0.0 0.0 0.00 0.00 0.00 94 1013.2
20260505074558 11 165 0.0 0.0 0.00 0.00 0.00 93 1013.1
20260505074000 11 165 0.0 0.0 0.00 0.00 0.00 93 1013.2
20260505073102 12 165 0.0 0.0 0.00 0.00 0.00 93 1013.3
20260505073004 12 165 0.0 0.0 0.00 0.00 0.00 93 1013.4
20260505072000 12 165 0.0 0.0 0.00 0.00 0.00 93 1013.2
20260505071558 12 165 0.0 0.0 0.00 0.00 0.00 93 1013.0
20260505071004 12 165 0.0 0.0 0.00 0.00 0.00 93 1013.2